SCP
0 0 0 0 0 0 0 0 0 0 1 2 3 3 4 4 5 4 4 4 3 1 1 0 0 0 0 0 0 0 0 0 0 0 0 0 0 0 0 0 0 0 0 0
0 0 0 0 0 0 0 0 0 0 1 2 4 5 5 5 5 5 4 4 2 1 1 0 0 0 0 0 0 0 0 0 0 0 0 0 0 0 0 0 0 0 0 0
0 0 0 0 0 0 0 0 1 1 2 3 4 4 4 5 4 4 3 2 2 1 0 0 0 0 0 0 0 0 0 0 0 0 0 0 0 0 0 0 0 0 0 0
0 0 0 0 0 0 0 1 1 2 2 2 2 2 2 2 2 2 2 1 1 0 0 0 0 0 0 0 0 0 0 0 0 0 0 0 0 0 0 0 0 0 0 0
0 0 0 0 0 0 0 1 1 1 1 1 1 1 1 1 1 0 0 0 0 0 0 0 0 0 0 0 0 0 0 0 0 0 0 0 0 0 0 0 0 0 0 0
0 0 0 0 0 0 0 1 1 1 1 1 1 1 0 0 0 0 0 0 0 0 0 0 0 0 0 0 0 0 0 0 0 0 0 0 0 0 0 0 0 0 0 0
0 0 0 0 0 0 0 0 1 1 1 1 1 0 0 0 0 0 0 0 0 0 0 0 0 0 0 0 0 0 0 0 0 0 0 0 0 0 0 0 0 0 0 0
0 0 0 0 0 0 0 1 1 1 1 1 0 0 0 0 0 0 0 0 0 0 0 0 0 0 0 0 0 0 0 0 0 0 0 0 0 0 0 0 0 0 0 0
0 0 0 0 0 0 1 1 1 1 1 1 0 0 0 0 0 0 0 0 0 0 0 0 0 0 0 0 0 0 0 0 0 0 0 0 0 0 0 0 0 0 0 0
0 0 0 0 0 1 1 1 1 1 1 0 0 0 0 0 0 0 0 0 0 0 0 0 0 0 0 0 0 0 0 0 0 0 0 0 0 0 0 0 0 0 0 0
0 0 0 0 0 1 1 0 0 1 0 0 0 0 0 0 0 0 0 0 0 0 0 0 0 0 0 0 0 0 0 0 0 0 0 0 0 0 0 0 0 0 0 0
0 0 0 0 0 0 0 0 0 0 0 0 0 0 0 0 0 0 0 0 0 0 0 0 0 0 0 0 0 0 0 0 0 0 0 0 0 0 0 0 0 0 0 0
0 0 0 0 0 0 0 0 0 0 0 0 0 0 0 0 0 0 0 0 0 0 0 0 0 0 0 0 0 0 0 0 0 0 0 0 0 0 0 0 0 0 0 0
0 0 0 0 0 0 0 0 0 0 0 0 0 0 0 0 0 0 0 0 0 0 0 0 0 0 0 0 0 0 0 0 0 0 0 0 0 0 0 0 0 0 0 0
0 0 0 0 0 0 0 0 0 0 0 0 0 0 0 0 0 0 0 0 0 0 0 0 0 0 0 0 0 0 0 0 0 0 0 0 0 0 0 0 0 0 0 0
0 0 0 0 0 0 0 0 0 0 0 0 0 0 0 0 0 0 0 0 0 0 0 0 0 0 0 0 0 0 0 0 0 0 0 0 0 0 0 0 0 0 0 0
0 0 0 0 0 0 0 0 0 0 0 0 0 0 0 0 0 0 0 0 0 0 0 0 0 0 0 0 0 0 0 0 0 0 0 0 0 0 0 0 0 0 0 0
0 0 0 0 0 0 0 0 0 0 0 0 0 0 0 0 0 0 0 0 0 0 0 0 0 0 0 0 0 0 0 0 0 0 0 0 0 0 0 0 0 0 0 0
0 0 0 0 0 0 0 0 0 0 0 0 0 0 0 0 0 0 0 0 0 0 0 0 0 0 0 0 0 0 0 0 0 0 0 0 0 0 0 0 0 0 0 0
0 0 0 0 0 0 0 0 0 0 0 0 0 0 0 0 0 0 0 0 0 0 0 0 0 0 0 0 0 0 0 0 0 0 0 0 0 0 0 0 0 0 0 0
0 0 0 0 0 0 0 0 0 0 0 0 0 0 0 0 0 0 0 0 0 0 0 0 0 0 0 0 0 0 0 0 0 0 0 0 0 0 0 0 0 0 0 0
0 0 0 0 0 0 0 0 0 0 0 0 0 0 0 0 0 0 0 0 0 0 0 0 0 0 0 0 0 0 0 0 0 0 0 0 0 0 0 0 0 0 0 0
0 0 0 0 0 0 0 0 0 0 0 0 0 0 0 0 0 0 0 0 0 0 0 0 0 0 0 0 0 0 0 0 0 0 0 0 0 0 0 0 0 0 0 0
0 0 0 0 0 0 0 0 0 0 0 0 0 0 0 0 0 0 0 0 0 0 0 0 0 0 0 0 0 0 0 0 0 0 0 0 0 0 0 0 0 0 0 0
0 0 0 0 0 0 0 0 0 0 0 0 0 0 0 0 0 0 0 0 0 0 0 0 0 0 0 0 0 0 0 0 0 0 0 0 0 0 0 0 0 0 0 0
0 0 0 0 0 0 0 0 0 0 0 0 0 0 0 0 0 0 0 0 0 0 0 0 0 0 0 0 0 0 0 0 0 0 0 0 0 0 0 0 0 0 0 0
0 0 0 0 0 0 0 0 0 0 0 0 0 0 0 0 0 0 0 0 0 0 0 0 0 0 0 0 0 0 0 0 0 0 0 0 0 0 0 0 0 0 0 0
Wind_Speed
17 19 16 14 12 10 11 13 13 12 9 10 8 8 8 8 9 10 12 14 14 14 13 13 11 9 9 8 7 6 6 5 4 2 1 1 2 3 4 5 6 6 6 7
16 17 17 17 17 16 15 16 16 15 7 12 13 16 15 10 7 8 11 13 14 14 14 13 12 11 11 9 8 7 6 4 2 1 2 4 3 4 5 6 6 6 7 7
13 15 16 18 17 17 16 11 10 8 11 13 15 17 16 12 9 9 11 13 14 13 13 12 12 11 10 8 6 4 3 2 1 2 4 4 5 6 6 5 6 6 5 5
11 13 16 11 5 5 4 9 11 10 11 11 13 16 18 16 13 13 14 14 14 13 13 12 11 9 7 5 2 0 0 1 3 3 4 4 5 6 5 5 5 5 4 5
10 13 14 6 6 6 4 7 13 11 10 10 6 10 15 15 14 14 14 13 13 13 12 10 8 6 4 1 1 2 3 4 4 5 5 6 7 7 6 5 4 5 5 5
10 11 9 3 5 6 5 4 11 10 9 9 9 4 6 10 12 13 13 12 12 11 10 8 5 2 1 2 2 3 5 5 5 5 5 6 6 6 5 4 4 5 5 5
11 11 4 6 6 6 4 4 8 8 8 7 7 8 10 11 12 13 13 13 11 10 7 4 2 2 2 4 4 5 5 5 5 4 4 7 5 3 4 4 4 4 5 5
7 9 3 9 7 7 7 6 7 7 7 11 13 13 13 13 13 13 12 11 9 7 5 3 3 4 5 5 5 4 4 5 5 5 6 6 4 3 3 4 4 5 6 7
2 1 3 5 6 7 7 7 7 5 8 15 15 14 14 13 12 11 10 8 6 6 6 4 4 5 6 4 3 3 4 4 5 7 6 5 4 4 4 4 5 6 6 7
5 3 3 5 6 8 8 8 7 8 12 16 16 15 14 12 10 9 8 7 7 7 7 6 6 5 4 3 3 3 3 2 5 6 6 5 4 5 5 6 6 6 6 6
8 7 5 8 9 9 9 11 12 13 14 16 17 15 14 11 10 8 8 7 6 7 7 7 6 5 5 4 3 2 2 2 5 6 5 4 4 4 5 5 4 5 6 6
5 6 5 5 6 7 11 12 14 16 16 14 15 14 13 11 9 8 7 7 7 7 7 7 7 7 7 6 6 5 5 5 5 5 4 3 2 2 2 1 3 1 2 5
5 5 4 5 8 11 13 14 14 15 16 15 13 12 12 10 9 8 8 8 8 8 8 8 8 8 7 6 6 6 6 5 4 5 4 4 3 3 2 2 5 3 1 7
3 1 4 6 9 12 13 13 13 14 14 14 12 12 11 10 9 8 8 8 8 9 9 8 9 8 7 7 7 6 5 4 4 4 4 3 3 3 3 3 3 2 1 5
4 6 10 12 13 12 11 11 12 13 14 13 12 10 10 9 9 9 9 9 9 9 9 9 9 8 7 7 7 7 6 5 4 3 4 4 3 3 4 5 5 5 5 6
10 13 14 15 14 13 12 12 13 13 13 12 10 10 10 9 9 9 9 9 9 9 9 8 7 5 4 4 4 4 3 1 4 3 4 4 4 4 4 4 4 4 5 7
12 12 14 14 13 12 12 12 12 12 12 11 11 11 10 10 10 10 10 11 10 9 8 6 5 5 5 5 3 1 2 3 1 4 6 5 4 5 5 5 5 4 4 5
11 12 12 13 13 13 12 12 12 12 11 12 11 10 10 10 10 10 10 9 9 8 7 7 6 6 6 6 7 5 4 4 4 5 5 5 5 5 5 5 5 5 4 4
12 13 12 12 13 13 13 13 12 11 11 11 10 10 10 10 9 9 8 8 9 8 7 5 2 3 4 4 6 4 4 5 5 5 5 5 5 6 6 6 6 6 5 5
12 13 14 13 13 14 13 13 12 10 10 10 10 10 10 9 9 9 9 9 7 6 5 2 2 4 4 7 8 5 7 7 7 7 7 7 7 7 7 7 7 7 6 6
13 14 14 14 14 14 13 12 11 11 10 10 10 11 10 9 9 8 8 8 7 5 3 1 3 6 7 10 8 7 8 8 8 8 7 7 7 7 7 7 7 7 7 6
13 14 14 14 13 12 11 10 10 11 11 11 11 10 9 9 9 9 9 6 5 2 2 6 6 8 11 12 6 9 9 8 8 7 7 7 7 7 7 7 7 7 7 7
12 13 13 13 13 12 11 10 10 9 10 11 10 9 8 8 8 7 7 6 7 6 6 7 6 10 15 8 8 9 9 9 8 8 7 7 7 7 7 7 7 7 7 7
13 13 13 12 12 11 11 10 9 8 9 10 9 8 7 7 8 9 9 9 9 8 6 3 6 10 10 4 8 9 9 9 8 8 8 8 7 7 7 8 8 7 8 9
13 13 13 13 11 9 9 9 9 8 9 8 9 8 6 8 9 9 9 9 8 6 5 2 5 8 4 7 8 8 8 7 8 8 8 8 8 8 8 8 8 8 8 8
11 10 9 9 8 7 8 8 7 7 7 8 7 7 8 9 11 9 8 9 8 5 4 3 3 2 6 8 8 8 7 7 7 8 9 8 9 9 8 8 10 8 8 9
11 9 7 7 8 8 8 7 7 7 7 8 8 8 9 9 9 9 9 8 6 5 3 4 6 7 7 8 8 8 7 8 8 8 8 8 8 8 9 10 8 8 8 9
Wind_Direction
274 282 284 282 281 289 301 303 300 301 329 43 27 9 32 65 98 115 124 124 125 125 122 118 112 103 90 76 60 58 70 84 89 94 106 74 49 31 24 13 4 12 11 11
280 277 281 282 280 280 275 274 283 294 356 51 39 35 39 49 77 107 119 123 122 120 118 115 108 99 88 73 56 47 46 58 59 23 48 50 41 47 39 24 16 16 18 15
274 277 278 269 273 281 284 315 340 6 39 36 42 42 32 32 55 81 102 110 110 108 104 100 96 92 86 76 59 48 39 36 41 36 57 47 42 45 31 19 21 16 12 14
283 279 264 273 319 348 354 34 26 34 35 42 67 67 46 40 59 78 93 99 100 99 98 95 92 89 87 84 82 119 135 73 64 64 65 57 52 41 32 22 19 359 6 11
273 269 266 272 24 3 342 62 32 26 19 15 49 92 59 47 61 76 86 94 97 99 99 95 91 91 97 110 198 171 118 88 66 54 53 52 48 33 31 14 10 351 12 350
256 264 272 62 26 9 314 104 33 20 12 3 349 345 71 65 77 84 89 94 98 99 97 95 96 103 144 161 131 109 94 79 66 55 55 65 55 33 15 358 9 353 350 337
249 257 266 29 327 305 293 53 22 22 23 34 49 73 100 95 90 93 96 98 100 100 100 106 133 148 120 99 88 83 84 79 65 39 63 83 68 38 8 357 356 348 347 348
260 256 250 21 8 31 33 23 21 34 66 92 101 104 104 103 102 103 102 101 101 102 103 111 116 104 88 80 79 82 84 82 78 59 44 61 60 43 24 2 360 10 3 360
1 354 55 47 49 44 24 15 21 52 97 116 115 113 111 109 109 109 111 116 123 125 122 119 114 107 104 111 118 109 94 88 91 92 74 42 34 38 32 19 17 15 6 360
290 163 94 48 46 47 46 49 59 88 110 118 119 119 117 116 119 127 138 144 142 128 111 100 97 102 108 109 101 88 84 100 113 106 93 66 39 39 36 22 19 17 10 358
286 303 347 44 45 56 73 83 88 94 106 117 120 122 126 131 140 147 147 146 139 125 118 118 122 115 101 87 80 87 79 70 94 88 83 75 62 38 34 56 38 15 9 353
309 7 4 19 47 83 100 102 107 111 113 117 123 129 134 138 144 144 141 140 132 125 120 112 99 82 66 55 47 35 46 53 66 71 68 58 57 124 134 98 171 201 345 344
343 10 49 70 81 99 109 112 117 121 126 129 134 137 136 136 139 140 139 134 127 121 110 99 89 79 69 60 62 62 56 43 54 58 60 49 26 21 57 185 219 225 8 2
337 119 110 107 108 110 116 121 127 128 129 129 131 133 133 136 139 137 131 125 121 114 106 96 85 77 72 63 50 51 72 67 57 72 64 55 38 24 28 35 49 47 43 17
58 104 114 113 113 116 122 131 132 129 129 129 131 132 131 127 125 121 119 119 115 107 96 88 82 75 71 70 63 48 41 34 23 59 72 69 56 39 38 38 39 30 25 26
101 106 113 116 121 127 131 133 130 129 127 126 124 121 118 115 113 111 111 109 101 92 85 81 81 82 88 105 126 127 105 34 340 35 59 60 60 50 43 41 42 35 32 23
117 120 123 124 127 131 132 131 128 126 126 124 121 120 115 107 101 96 91 89 89 88 85 79 68 59 54 40 18 65 82 106 197 44 46 38 48 52 52 45 40 43 51 46
124 127 131 136 140 140 138 132 127 125 124 126 127 124 115 106 101 100 101 101 97 88 76 66 46 38 47 31 353 346 19 46 47 52 60 40 38 52 52 50 44 42 56 74
125 128 130 133 134 133 130 128 128 128 129 129 124 113 107 109 113 118 122 117 109 96 86 80 10 44 52 32 323 306 23 44 50 44 52 64 52 52 50 46 45 42 43 50
125 127 128 127 126 123 124 126 127 125 124 123 119 116 116 117 113 103 92 83 82 94 106 72 57 54 34 21 336 6 41 41 46 42 41 47 47 46 45 44 43 41 38 43
125 125 125 123 122 124 127 129 131 130 130 127 122 118 118 118 117 116 106 97 94 91 114 137 33 37 28 348 323 31 40 40 47 47 38 41 45 48 46 45 43 41 38 37
125 125 125 125 127 128 130 134 137 135 131 128 128 130 133 126 110 96 89 98 101 42 27 75 61 26 357 332 15 45 41 40 46 53 48 40 41 44 48 48 46 44 39 37
130 130 131 133 133 134 138 139 138 136 134 134 136 141 135 124 123 119 111 97 85 73 69 64 22 355 339 340 43 47 43 40 41 45 50 51 45 42 43 47 49 48 44 38
137 137 137 137 138 140 142 141 140 144 145 141 140 138 136 126 109 101 100 88 78 84 83 55 334 330 318 36 56 49 41 35 35 43 42 49 53 47 46 45 48 46 45 45
144 143 143 144 144 144 142 144 146 150 144 133 137 148 135 116 114 111 109 112 129 123 123 173 278 296 324 60 67 69 62 48 36 36 45 47 49 49 48 50 49 47 42 44
147 146 145 151 147 148 155 158 158 154 146 148 150 136 116 112 116 124 133 137 137 162 171 160 120 114 72 66 60 54 57 58 54 53 47 47 50 53 50 46 52 52 49 43
148 143 149 156 158 164 165 165 161 159 154 148 135 128 131 137 139 140 138 145 169 192 153 99 81 76 72 69 65 62 58 55 49 48 49 50 52 52 54 52 47 47 54 54